Location: Zagreb
(45.8000°N, 16.0000°E)
Time: 01:17:03
(UTC+01:00)

SR - Pass Details

Date: 20 August 2020
Orbit: 576 x 879 km, 66.7° (Epoch: 15 January)

Event Time Altitude Azimuth Distance (km) Brightness Sun altitude
Rises 06:22:52 0° 307° (NW) 2,855 ? 2.6°
Reaches altitude 10° 06:26:17 10° 278° (W) 1,994 ? 3.1°
Maximum altitude 06:28:11 13° 253° (WSW) 1,856 ? 3.5°
Drops below altitude 10° 06:30:08 10° 228° (SW) 2,054 ? 3.8°
Sets 06:33:47 0° 200° (SSW) 3,034 ? 4.4°
